Вернуться в каталог

RASCOM 1

АктивенСвязьGEO
NORAD 32387·PAYLOAD·🇨🇦 Canada

Запущен Dec 21, 2007 с Guiana Space Centre

Loading…

TLE

СвежийSource: Space-Track

Эпоха: Sep 14, 2026, 10:42 UTC

1 32387U 07063A   26257.44638455  .00000051  00000-0  00000-0 0  9996
2 32387  11.5694  40.8551 0010917 114.8357 237.6774  0.99061249 68359

Отслеживайте RASCOM 1 в реальном времени с AllMySat

Download on the App Store